Overview Statistics Trail Chart Weather Telemetry Raw packets
 

This is the latest recevied weather packets stored in our database for station/object KE5QKR. If no packets are shown the sender has not sent any weather packets the latest 10 day(s).

<< 36 37 38 39 40 41 42 >>
Time Temp. Humidity Pressure Rain* Wind** Luminosity Snow
1777740257 18.89° C 72% 1014.9 hPa 0 mm - 868 W/m² -
1777739953 19.44° C 70% 1015 hPa 0 mm - 620 W/m² -
1777739649 19.44° C 71% 1014.6 hPa 0 mm - 870 W/m² -
1777739348 19.44° C 73% 1014.8 hPa 0 mm - 834 W/m² -
1777739044 18.89° C 72% 1014.9 hPa 0 mm - 813 W/m² -
1777738741 18.89° C 72% 1014.8 hPa 0 mm - 887 W/m² -
1777738437 18.33° C 74% 1014.8 hPa 0 mm - 804 W/m² -
1777738135 18.33° C 75% 1015 hPa 0 mm - 793 W/m² -
1777737833 18.33° C 76% 1015.1 hPa 0 mm - 797 W/m² -
1777737532 18.33° C 76% 1014.9 hPa 0 mm - 768 W/m² -
1777737229 18.33° C 77% 1014.9 hPa 0 mm - 754 W/m² -
1777736925 17.78° C 79% 1015 hPa 0 mm - 750 W/m² -
1777736013 17.22° C 80% 1014.9 hPa 0 mm - 720 W/m² -
1777735711 17.22° C 82% 1014.8 hPa 0 mm - 708 W/m² -
1777735408 17.22° C 84% 1014.6 hPa 0 mm - 617 W/m² -
1777735106 17.22° C 84% 1014.9 hPa 0 mm - 734 W/m² -
1777734802 16.11° C 88% 1014.8 hPa 0 mm - 701 W/m² -
1777734500 16.11° C 89% 1014.8 hPa 0 mm - 139 W/m² -
1777734196 15.56° C 87% 1014.7 hPa 0 mm - 707 W/m² -
1777733893 15.56° C 88% 1014.6 hPa 0 mm - 149 W/m² -
1777733589 15.56° C 88% 1014.7 hPa 0 mm - 669 W/m² -
1777733286 15.56° C 88% 1014.5 hPa 0 mm - 699 W/m² -
1777732983 15.56° C 89% 1014.3 hPa 0 mm - 565 W/m² -
1777732678 15.56° C 89% 1014.1 hPa 0 mm - 282 W/m² -
1777732376 15° C 89% 1014.5 hPa 0 mm - 125 W/m² -

* Rain latest hour (hover to see other rain measurements)
** Current wind speed in m/s (hover to see current wind gust speed)